Zurück zum Katalog

DELTA 1 DEB

AktivLEO
NORAD 10844·DEBRIS·🇺🇸 United States

Gestartet Jul 29, 1976 von Vandenberg Space Force Base

Loading…

Nächste Überflüge (nächste 24 Stunden)

TLE

AktuellSource: Space-Track

Epoche: Sep 14, 2026, 10:08 UTC

1 10844U 76077CQ  26257.42246921 -.00002720  00000-0 -25212-2 0  9993
2 10844 101.2173 324.8409 0113163  17.0932  46.9334 13.78146871423241

Verfolge DELTA 1 DEB in Echtzeit mit AllMySat

Download on the App Store